Location: *
(13.2257°S, 48.7193°W)
Time: 14:00:11
(UTC+00:00)

GPS 2-12 Rocket1 - Pass Details

Date: 13 February 2026
Orbit: 561 x 614 km, 20.0° (Epoch: 11 March)

Event Time Altitude Azimuth Distance (km) Brightness Sun altitude
Exits shadow 07:30:59 34° 197° (SSW) 986 4.1 -24.5°
Maximum altitude 07:31:43 36° 175° (S) 938 4.1 -24.3°
Drops below altitude 10° 07:35:50 10° 107° (ESE) 1,901 6.7 -23.4°
Sets 07:38:16 0° 99° (E) 2,790 7.8 -22.8°
